Regional Weather Roundup
Issued by NWS Newport/Morehead, NC

Current Version | Previous Version | Text Only | Print | Product List | Glossary On
Versions: 1 2 3 4 5 6 7 8 9 10 11 12 13 14 15 16 17 18 19 20 21 22 23 24 25 26 27 28 29 30 31 32 33 34 35 36 37 38 39 40 41 42 43 44 45 46 47 48 49 50
588 ASUS42 KMHX 251925 RWRMHX WEATHER ROUNDUP FOR EASTERN NORTH CAROLINA NATIONAL WEATHER SERVICE NEWPORT/MOREHEAD CITY NC 300 PM EDT SUN JUN 25 2017 NOTE: "FAIR" INDICATES FEW OR NO CLOUDS BELOW 12,000 FEET WITH NO SIGNIFICANT WEATHER AND/OR OBSTRUCTIONS TO VISIBILITY NCZ015>017-031-032-045>047-102-103-252000- NORTH COAST CITY SKY/WX TMP DP RH WIND PRES REMARKS EDENTON MOSUNNY 88 68 52 NW9 30.01S ELIZABETH CITY MOSUNNY 88 72 58 SW9 29.99F KITTY HAWK CLOUDY 83 70 63 CALM 29.99F MANTEO CLOUDY 83 74 73 NW3 30.00F $$ NCZ045>047-081-094-103-104-252000- CENTRAL COAST CITY SKY/WX TMP DP RH WIND PRES REMARKS FRISCO MOSUNNY 83 74 74 VRB7 30.02S $$ NCZ095-097-098-100-101-252000- SOUTHERN COAST CITY SKY/WX TMP DP RH WIND PRES REMARKS BEAUFORT MOSUNNY 83 78 85 SW13 30.01F CEDAR ISLAND NOT AVBL JACKSONVILLE CLOUDY 87 77 72 SW7 30.00F PINEY ISLAND CLOUDY N/A N/A N/A W8 30.01F WILMINGTON CLOUDY 86 75 69 W9 30.03F $$ NCZ011>013-027>030-043-044-078>080-089-090>093-098-252000- COASTAL PLAIN CITY SKY/WX TMP DP RH WIND PRES REMARKS AHOSKIE N/A 83 65 54 NW5 30.02F CLINTON SUNNY 85 71 61 NW7 30.04F ELIZABETHTOWN NOT AVBL GOLDSBORO NOT AVBL GREENVILLE PTSUNNY 88 64 45 NW7 30.04S HAVELOCK PTSUNNY 86 73 65 W8 30.02F KENANSVILLE PTSUNNY 84 73 70 NW7 30.04S KINSTON MOSUNNY 86 66 51 N7 30.03F NEW BERN PTSUNNY 86 76 71 NW7 30.02F RICHLANDS CLOUDY 88 75 66 SW8 30.02F ROCKY MOUNT MOSUNNY 86 65 49 VRB3 30.03F WASHINGTON MOSUNNY N/A N/A N/A NW5 30.02S WHITEVILLE MOSUNNY 87 72 61 W5 30.03F $$ AMZ130-135-150-152-154-156-158-170-250-252-270-ANZ085-086-088-633-658-670-252000- MARINE OBSERVATIONS STATION/POSITION TIME TEMP WIND PRES WAVE SWELL AIR SEA DIR/SP/G HT/PER HT/PER (UTC) (F) (DEG/KT/KT) (MB) (FT/S) (FT/S) CHESAPEAKE LIGHT NOT AVBL 64 E VA BEACH 1850 74 74 260/ 4/ 4 1016.6 4/ 7 3/ 7 DUCK 1900 74 62 150/ 10/ 11 1015.1 2 E DUCK NOT AVBL OREGON INLET 1900 79 79 40/ 6/ 7 1015.8 13E OREGON INLT 1848 77 N/A 3/ 7 2/ 7 HATTERAS CG 1900 80 78 280/ 8/ 9 1016.2 DIAMOND BUOY 1850 79 81 280/ 6/ 8 1016.5 3/ 6 3/ 6 CAPE LOOKOUT 1900 80 240/ 9/ 12 1016.1 BEAUFORT LAB 1900 81 79 210/ 7/ 10 1015.8 30 SE NEW RVR IN 1908 80 81 260/ 8/ 12 1016.9 30 SE NEW RVR IN 1913 81 N/A 4/ 6 27 SE WRIGHTSVLE 1908 79 81 240/ 12/ 16 1017.0 5 SE WRIGHTSVLE 1908 81 80 220/ 6/ 8 1016.6 225 S CAPE HAT 1850 81 81 220/ 14/ 16 1019.9 4/ 5 2/ 8 41 SE CHARLESTON 1910 80 81 220/ 12/ 14 1017.5 $$

USA.gov is the U.S. government's official web portal to all federal, state and local government web resources and services.